Stations météo

Publicité
Deauville, France (7031): Température de l'air & dewpoint: 07.08.2020 14:00:00 - 13.08.2020 14:00:00 (CEST)Deauville, France (7031): Température de l'air 5cm: 07.08.2020 14:00:00 - 13.08.2020 14:00:00 (CEST)Deauville, France (7031): Vitesse du vent & gusts: 07.08.2020 14:00:00 - 13.08.2020 14:00:00 (CEST)Deauville, France (7031): Direction du vent: 07.08.2020 14:00:00 - 13.08.2020 14:00:00 (CEST)Deauville, France (7031): reduced air pressure: 07.08.2020 14:00:00 - 13.08.2020 14:00:00 (CEST)Deauville, France (7031): visibility: 07.08.2020 14:00:00 - 13.08.2020 14:00:00 (CEST)Deauville, France (7031): Quantités de précipitations: 07.08.2020 14:00:00 - 13.08.2020 14:00:00 (CEST)
Date & Time tt [°C] td [°C] tt 5cm [°C] ff [km/h] ff [knt] fx [km/h] fx [knt] dd ppp [hPa] vv [km] rr [mm]
13.08.2020 14:00:00 - - - - - - - - - - -
13.08.2020 13:00:00 - - - - - - - - - - -
13.08.2020 12:00:00 - - - - - - - - - - -
13.08.2020 11:00:00 - - - - - - - - - - -
13.08.2020 10:00:00 - - - - - - - - - - -
13.08.2020 09:00:00 - - - - - - - - - - -
13.08.2020 08:00:00 - - - - - - - - - - -
13.08.2020 07:00:00 - - - - - - - - - - -
13.08.2020 06:00:00 - - - - - - - - - - -
13.08.2020 05:00:00 - - - - - - - - - - -
13.08.2020 04:00:00 - - - - - - - - - - -
13.08.2020 03:00:00 - - - - - - - - - - -
13.08.2020 02:00:00 - - - - - - - - - - -
13.08.2020 01:00:00 - - - - - - - - - - -
13.08.2020 00:00:00 - - - - - - - - - - -
12.08.2020 23:00:00 - - - - - - - - - - -
12.08.2020 22:00:00 - - - - - - - - - - -
12.08.2020 21:00:00 - - - - - - - - - - -
12.08.2020 20:00:00 - - - - - - - - - - -
12.08.2020 19:00:00 - - - - - - - - - - -
12.08.2020 18:00:00 - - - - - - - - - - -
12.08.2020 17:00:00 31,4 18,0 37,6 14 8 26 14 N 1010,1 48 0,0
12.08.2020 16:00:00 29,8 16,6 32,7 15 8 27 15 NNW 1011,4 20 0,0
12.08.2020 15:00:00 30,0 18,4 33,0 14 8 23 13 NNW 1011,7 20 0,0
12.08.2020 14:00:00 31,3 19,6 34,9 12 7 25 13 NNW 1011,7 20 0,0
12.08.2020 13:00:00 32,0 17,9 38,3 5 3 14 7 ENE 1012,2 60 0,0
12.08.2020 12:00:00 30,4 18,5 36,7 6 3 18 10 SE 1012,5 20 0,0
12.08.2020 11:00:00 28,1 17,9 30,9 11 6 27 14 SE 1012,5 51 0,0
12.08.2020 10:00:00 25,5 17,2 - 18 10 31 17 SE 1013,2 40 0,0
12.08.2020 09:00:00 23,9 17,2 22,2 9 5 17 9 SE 1013,0 52 0,0
12.08.2020 08:00:00 22,0 16,5 18,4 12 6 20 11 SSE 1013,3 46 0,0
12.08.2020 07:00:00 20,5 16,1 18,5 10 5 19 10 ESE 1013,3 51 0,0
12.08.2020 06:00:00 22,0 16,3 16,2 11 6 19 10 SE 1013,4 59 0,0
12.08.2020 05:00:00 21,0 16,8 17,3 11 6 19 10 E 1013,5 48 0,0
12.08.2020 04:00:00 20,6 16,6 15,2 8 4 13 7 ESE 1013,8 55 0,0
12.08.2020 03:00:00 19,2 17,2 14,8 3 2 11 6 SE 1013,7 46 0,0
12.08.2020 02:00:00 19,5 17,5 15,5 3 2 12 7 SE 1013,6 51 0,0
12.08.2020 01:00:00 19,6 17,6 16,1 0 0 8 4 N 1013,4 46 0,0
12.08.2020 00:00:00 20,9 17,9 18,8 3 2 11 6 E 1013,5 55 0,0
11.08.2020 23:00:00 22,1 17,7 20,9 9 5 19 11 NE 1014,2 60 0,0
11.08.2020 22:00:00 22,7 17,6 21,6 9 5 25 13 SSE 1014,5 60 0,0
11.08.2020 21:00:00 23,1 17,8 23,1 16 9 28 15 S 1014,3 60 0,0
11.08.2020 20:00:00 23,8 17,1 23,0 16 9 28 15 ESE 1013,7 60 0,0
11.08.2020 19:00:00 22,6 17,3 22,9 11 6 59 32 E 1013,9 57 0,0
11.08.2020 18:00:00 24,8 16,0 24,9 42 23 68 37 SE 1014,6 16 0,0
11.08.2020 17:00:00 32,0 19,6 38,6 10 6 19 11 NW 1012,3 20 0,0
11.08.2020 16:00:00 31,3 20,0 34,0 10 5 22 12 NNW 1012,7 19 0,0
11.08.2020 15:00:00 29,3 18,7 34,4 12 7 21 11 N 1013,5 17 0,0
11.08.2020 14:00:00 28,7 18,8 31,2 11 6 19 11 NNW 1014,2 14 0,0
11.08.2020 13:00:00 28,2 19,7 34,7 9 5 17 9 N 1014,3 19 0,0
11.08.2020 12:00:00 28,6 19,8 34,2 8 5 13 7 N 1014,1 17 0,0
11.08.2020 11:00:00 28,2 19,4 32,3 4 2 18 10 E 1014,3 19 0,0
11.08.2020 10:00:00 26,0 17,4 29,9 2 1 11 6 S 1014,6 17 0,0
11.08.2020 09:00:00 22,7 17,6 20,0 2 1 7 4 NE 1014,6 10 0,0
11.08.2020 08:00:00 19,0 18,7 14,8 3 2 10 6 W 1014,6 3,4 0,0
11.08.2020 07:00:00 17,5 17,2 13,8 5 3 8 4 SW 1014,3 2,1 0,0
11.08.2020 06:00:00 17,7 16,9 14,7 4 2 9 5 WSW 1014,1 0,7 0,0
11.08.2020 05:00:00 17,7 16,2 14,9 4 2 8 5 WSW 1014,2 4,8 0,0
11.08.2020 04:00:00 18,7 16,3 15,4 3 1 6 3 NNW 1014,1 20 0,0
11.08.2020 03:00:00 18,8 16,8 15,5 4 2 10 6 NNE 1014,2 18 0,0
11.08.2020 02:00:00 19,3 16,7 16,4 5 3 16 9 NE 1014,2 11 0,0
11.08.2020 01:00:00 20,3 17,1 17,7 10 5 19 10 NNE 1014,6 11 0,0
11.08.2020 00:00:00 19,9 18,2 19,0 10 6 27 14 N 1014,8 5 0,0
10.08.2020 23:00:00 20,9 18,3 20,3 15 8 27 14 W 1015,3 9 0,0
10.08.2020 22:00:00 22,8 16,8 21,5 8 4 21 11 NW 1014,4 23 0,0
10.08.2020 21:00:00 23,8 16,1 23,3 7 4 22 12 NW 1013,9 30 0,0
10.08.2020 20:00:00 25,0 16,2 26,0 10 5 22 12 NW 1013,1 41 0,0
10.08.2020 19:00:00 25,6 16,7 26,7 9 5 20 11 NNW 1012,9 38 0,0
10.08.2020 18:00:00 26,0 16,8 27,9 11 6 22 12 NW 1012,9 37 0,0
10.08.2020 17:00:00 28,4 17,0 31,9 10 6 23 12 NW 1012,7 42 0,0
10.08.2020 16:00:00 28,1 17,3 31,3 12 7 24 13 NNW 1012,8 27 0,0
10.08.2020 15:00:00 28,4 17,6 34,9 13 7 27 15 NNW 1013,1 46 0,0
10.08.2020 14:00:00 29,9 17,7 34,6 13 7 23 12 W 1012,9 52 0,0
10.08.2020 13:00:00 29,2 17,1 33,1 7 4 15 8 SW 1013,3 41 0,0
10.08.2020 12:00:00 28,2 17,1 31,6 5 3 19 11 SSW 1013,1 20 0,0
10.08.2020 11:00:00 26,4 16,6 29,5 14 8 27 14 SSE 1013,5 20 0,0
10.08.2020 10:00:00 24,9 16,3 25,9 19 11 31 17 SSE 1013,2 56 0,0
10.08.2020 09:00:00 21,8 16,5 20,9 13 7 22 12 SSE 1013,7 29 0,0
10.08.2020 08:00:00 19,4 16,4 14,6 10 5 16 8 S 1013,6 17 0,0
10.08.2020 07:00:00 17,1 15,3 15,5 5 3 23 13 E 1013,6 7 0,0
10.08.2020 06:00:00 18,6 15,7 14,6 16 8 24 13 SW 1012,6 12 0,0
10.08.2020 05:00:00 18,2 15,8 13,9 16 9 22 12 SSW 1012,9 11 0,0
10.08.2020 04:00:00 15,9 14,9 13,8 3 2 15 8 WSW 1013,6 2,8 0,0
10.08.2020 03:00:00 17,3 16,0 15,4 6 3 18 10 SE 1014,2 6 0,0
10.08.2020 02:00:00 17,7 16,6 16,1 13 7 20 11 E 1014,1 4,1 0,0
10.08.2020 01:00:00 18,3 17,0 17,2 9 5 18 10 SW 1013,9 6 0,0
10.08.2020 00:00:00 18,8 17,5 17,7 8 5 20 11 SW 1014,2 6 0,0
09.08.2020 23:00:00 19,1 17,9 17,8 13 7 19 11 WSW 1014,1 5 0,0
09.08.2020 22:00:00 19,1 17,6 18,3 14 7 22 12 WSW 1014,1 6 0,0
09.08.2020 21:00:00 19,8 17,6 19,4 16 8 30 16 W 1014,2 7 0,0
09.08.2020 20:00:00 20,4 18,2 21,7 22 12 28 15 W 1013,9 6 0,0
09.08.2020 19:00:00 22,0 18,4 26,6 16 9 26 14 WNW 1013,9 9 0,0
09.08.2020 18:00:00 25,9 17,5 31,5 18 10 25 14 W 1014,0 19 0,0
09.08.2020 17:00:00 26,3 17,4 32,2 16 8 29 15 WNW 1014,5 18 0,0
09.08.2020 16:00:00 25,8 18,0 32,4 21 11 29 16 W 1014,6 18 0,0
09.08.2020 15:00:00 27,5 18,2 35,3 18 10 26 14 W 1014,7 19 0,0
09.08.2020 14:00:00 28,8 17,0 32,4 10 5 20 11 NNW 1014,9 18 0,0
09.08.2020 13:00:00 27,2 17,4 33,0 8 5 21 12 NW 1015,6 17 0,0
09.08.2020 12:00:00 24,9 18,1 28,5 8 4 17 9 W 1015,7 14 0,0
09.08.2020 11:00:00 22,6 18,6 25,3 10 6 20 11 W 1016,3 10 0,0
09.08.2020 10:00:00 21,5 18,3 - 13 7 18 10 W 1016,6 8 0,0
09.08.2020 09:00:00 20,3 18,4 19,9 10 5 14 8 WSW 1016,5 6 0,0
09.08.2020 08:00:00 18,9 17,9 17,0 9 5 12 6 W 1016,8 4,7 0,0
09.08.2020 07:00:00 17,9 16,8 16,5 8 4 11 6 W 1016,7 4,3 0,0
09.08.2020 06:00:00 18,4 16,9 17,1 9 5 12 6 W 1016,6 7 0,0
09.08.2020 05:00:00 18,2 16,7 16,8 8 4 11 6 W 1016,9 7 0,0
09.08.2020 04:00:00 19,2 15,7 17,3 8 4 12 7 WNW 1017,0 18 0,0
09.08.2020 03:00:00 19,9 16,1 18,7 6 3 19 10 WNW 1017,3 20 0,0
09.08.2020 02:00:00 19,8 17,0 18,2 7 4 21 11 WNW 1017,6 15 0,0
09.08.2020 01:00:00 19,4 17,9 18,2 10 5 16 9 W 1017,9 9 0,0
09.08.2020 00:00:00 20,4 17,2 19,8 13 7 18 10 W 1017,5 32 0,0
08.08.2020 23:00:00 21,7 16,6 19,3 13 7 16 8 W 1017,5 49 0,0
08.08.2020 22:00:00 23,8 15,0 20,7 6 3 14 7 W 1017,4 56 0,0
08.08.2020 21:00:00 26,2 17,0 24,0 4 2 10 6 WNW 1016,9 60 0,0
08.08.2020 20:00:00 29,0 16,9 30,1 8 5 16 9 NNW 1016,7 59 0,0
08.08.2020 19:00:00 29,3 16,8 29,8 9 5 16 9 NNW 1016,8 60 0,0
08.08.2020 18:00:00 29,9 16,3 32,8 7 4 15 8 N 1017,2 60 0,0
08.08.2020 17:00:00 31,9 17,0 34,3 8 4 16 8 NW 1017,3 55 0,0
08.08.2020 16:00:00 32,1 15,1 35,3 7 4 20 11 WNW 1017,5 60 0,0
08.08.2020 15:00:00 33,9 15,4 37,4 12 7 24 13 WSW 1017,4 39 0,0
08.08.2020 14:00:00 33,3 14,8 36,6 13 7 29 15 S 1017,5 60 0,0
08.08.2020 13:00:00 31,8 14,4 34,4 14 8 31 17 S 1017,6 27 0,0
08.08.2020 12:00:00 31,3 14,4 35,6 14 7 23 13 S 1017,8 49 0,0
08.08.2020 11:00:00 30,6 14,2 32,9 11 6 24 13 SSE 1017,7 60 0,0
08.08.2020 10:00:00 28,1 15,0 23,5 10 5 22 12 E 1017,4 60 0,0
08.08.2020 09:00:00 24,6 15,5 18,6 11 6 22 12 SE 1017,4 60 0,0
08.08.2020 08:00:00 25,1 13,0 22,9 8 5 24 13 S 1017,7 20 0,0
08.08.2020 07:00:00 25,5 12,3 22,4 16 8 25 14 S 1017,2 60 0,0
08.08.2020 06:00:00 24,5 11,8 22,6 13 7 29 16 SSE 1017,2 60 0,0
08.08.2020 05:00:00 26,0 11,4 23,9 14 8 30 16 SE 1016,9 60 0,0
08.08.2020 04:00:00 26,0 12,1 23,2 19 11 30 16 SE 1017,2 60 0,0
08.08.2020 03:00:00 25,7 12,2 23,2 11 6 26 14 ESE 1017,2 60 0,0
08.08.2020 02:00:00 26,6 13,0 18,4 16 9 27 15 ESE 1017,0 60 0,2
08.08.2020 01:00:00 24,4 13,3 17,4 8 4 13 7 ESE 1017,4 60 0,0
08.08.2020 00:00:00 22,9 14,7 17,3 4 2 10 5 E 1017,2 60 0,0
07.08.2020 23:00:00 23,1 15,2 17,4 4 2 11 6 ENE 1016,9 60 0,0
07.08.2020 22:00:00 24,7 15,3 19,9 5 3 13 7 NE 1016,4 19 0,0
07.08.2020 21:00:00 27,4 15,7 25,4 8 5 17 9 NNE 1015,7 60 0,0
07.08.2020 20:00:00 31,5 13,7 33,3 13 7 25 13 N 1015,4 47 0,0
07.08.2020 19:00:00 32,8 13,4 34,3 10 6 21 11 N 1015,3 60 0,0
07.08.2020 18:00:00 35,9 7,9 43,0 7 4 25 13 SE 1015,4 60 0,0
07.08.2020 17:00:00 35,8 9,3 43,3 11 6 35 19 E 1015,7 20 0,0
07.08.2020 16:00:00 35,8 8,6 42,7 7 4 27 15 SSE 1016,2 46 0,0
07.08.2020 15:00:00 34,9 9,3 40,3 14 7 26 14 SSE 1016,7 60 0,0
07.08.2020 14:00:00 34,0 9,9 37,7 17 9 34 18 ESE 1016,9 50 0,0

tt = Température de l'air
td = dewpoint
tt 5cm = Température de l'air 5cm
ff = Vitesse du vent
fx = gusts
dd = Direction du vent
ppp = reduced air pressure
vv = visibility
rr = Quantités de précipitations

stations d'obs. à proximité